This is the latest recevied weather packets stored in our database for station/object WI0K. If no packets are shown the sender has not sent any weather packets the latest 10 day(s).
| Time | Temp. | Humidity | Pressure | Rain* | Wind** | Luminosity | Snow |
|---|---|---|---|---|---|---|---|
| 1778074274 | 0° C | 98% | 1018.6 hPa | 0 mm | - | 14 W/m² | - |
| 1778073974 | 0° C | 97% | 1018.5 hPa | 0 mm | - | 18 W/m² | - |
| 1778073673 | 0.56° C | 97% | 1018.3 hPa | 0 mm | - | 23 W/m² | - |
| 1778073373 | 0.56° C | 97% | 1018.2 hPa | 0 mm | - | 25 W/m² | - |
| 1778073072 | 0° C | 98% | 1018.1 hPa | 0 mm | - | 36 W/m² | - |
| 1778072771 | 0° C | 98% | 1017.9 hPa | 0 mm | - | 42 W/m² | - |
| 1778072470 | 0° C | 99% | 1017.9 hPa | 0 mm | - | 38 W/m² | - |
| 1778072170 | 0° C | 99% | 1017.8 hPa | 0 mm | - | 26 W/m² | - |
| 1778071869 | -0.56° C | 99% | 1017.7 hPa | 0 mm | - | 12 W/m² | - |
| 1778071569 | -0.56° C | 99% | 1017.7 hPa | 0 mm | - | 12 W/m² | - |
| 1778071268 | -0.56° C | 100% | 1017.8 hPa | 0 mm | - | 8 W/m² | - |
| 1778070967 | -0.56° C | 100% | 1017.9 hPa | 0 mm | - | 4 W/m² | - |
| 1778070667 | -0.56° C | 100% | 1017.9 hPa | 0 mm | - | 3 W/m² | - |
| 1778070366 | -0.56° C | 100% | 1017.8 hPa | 0 mm | - | 1 W/m² | - |
| 1778070065 | -0.56° C | 100% | 1017.9 hPa | 0 mm | - | 1 W/m² | - |
| 1778070014 | -0.56° C | 100% | 1017.7 hPa | 0 mm | - | 1 W/m² | - |
| 1778069765 | -0.56° C | 100% | 1017.7 hPa | 0 mm | - | 1 W/m² | - |
| 1778069464 | -0.56° C | 100% | 1017.6 hPa | 0 mm | - | 1 W/m² | - |
| 1778069414 | -0.56° C | 100% | 1017.7 hPa | 0 mm | - | 1 W/m² | - |
| 1778069163 | -0.56° C | 100% | 1017.7 hPa | 0 mm | - | 1 W/m² | - |
| 1778068862 | -0.56° C | 100% | 1017.6 hPa | 0 mm | - | 0 W/m² | - |
| 1778068808 | -0.56° C | 100% | 1017.6 hPa | 0 mm | - | 0 W/m² | - |
| 1778068562 | -0.56° C | 100% | 1017.6 hPa | 0 mm | - | 0 W/m² | - |
| 1778068512 | -0.56° C | 100% | 1017.6 hPa | 0 mm | - | 0 W/m² | - |
| 1778068261 | -0.56° C | 100% | 1017.6 hPa | 0 mm | - | 0 W/m² | - |
* Rain latest hour (hover to see other rain measurements)
** Current wind speed in m/s (hover to see current wind gust speed)